Regional Weather Roundup
Issued by NWS

Home | Current Version | Previous Version | Text Only | Print | Product List | Glossary On
Versions: 1 2 3 4 5 6 7 8 9 10 11 12 13 14 15 16 17 18 19 20 21 22 23 24 25 26 27 28 29 30 31 32 33 34 35 36 37 38 39 40 41 42 43 44 45 46 47 48 49 50
000
ASUS43 KDMX 311007
RWRIA

WEATHER ROUNDUP FOR IOWA
NATIONAL WEATHER SERVICE DES MOINES IA
500 AM CDT THU JUL 31 2014

NOTE: "FAIR" INDICATES FEW OR NO CLOUDS BELOW 12,000 FEET WITH NO
SIGNIFICANT WEATHER AND/OR OBSTRUCTIONS TO VISIBILITY.

* - THESE STATIONS ARE NOT NWS STATIONS...THUS NOT UNDER NWS
QUALITY CONTROL.  THEY ALSO DO NOT REPORT WEATHER SUCH
AS PRECIPITATION OR FOG.

IAZ001>003-012>014-020>022-031>034-043>046-311100-
   NORTHWEST IOWA

CITY           SKY/WX    TMP DP  RH WIND       PRES   REMARKS
CARROLL *      MOCLDY    50  50 100 CALM      30.10R
CHEROKEE *     CLEAR     52  52 100 CALM      30.10S
DENISON *      CLEAR     52  52 100 CALM      30.09S
LE MARS *      CLEAR     52  50  93 CALM      30.09F
ORANGE CITY *  CLEAR     59  55  88 CALM      30.09S
SHELDON *      CLEAR     50  48  93 CALM      30.08F
SIOUX CITY     CLEAR     56  54  93 E5        30.10S
SPENCER        CLEAR     52  51  97 CALM      30.09F FOG
STORM LAKE *   CLEAR     57  55  94 W6        30.11S
$$

IAZ055>058-069>071-079>083-090>094-311100-
   SOUTHWEST IOWA

CITY           SKY/WX    TMP DP  RH WIND       PRES   REMARKS
ATLANTIC *     CLOUDY    52  50  93 CALM      30.11R
AUDUBON *      CLEAR     52  48  87 CALM      30.12R
CLARINDA *     CLEAR     50  48  93 CALM      30.13R FOG
COUNCIL BLFS *   N/A     59  57  94 CALM      30.10S
CRESTON *      CLEAR     57  54  88 NW3       30.11S
HARLAN  *      CLEAR     52  50  93 CALM      30.14S
LAMONI         CLEAR     59  54  83 CALM      30.10S
RED OAK *      CLEAR     52  52 100 CALM      30.11S
SHENANDOAH *   FOG       52  52 100 CALM      30.12S VSB 1/2
$$

IAZ047>049-059>061-072>074-084-311100-
   CENTRAL IOWA

CITY           SKY/WX    TMP DP  RH WIND       PRES   REMARKS
AMES           CLEAR     54  53  97 CALM      30.08S
ANKENY *       CLEAR     55  55 100 CALM      30.09S
CHARITON *     PTCLDY    57  55  94 NW5       30.10R
DES MOINES     CLEAR     62  57  83 CALM      30.08S
GRINNELL*      CLEAR     57  55  94 W5        30.09R
KNOXVILLE *    CLEAR     57  55  94 W7        30.08S
MARSHALLTOWN   CLEAR     57  56  96 W3        30.07S
PELLA *          N/A     59  59 100 CALM      30.10R FOG
PERRY *          N/A     55  55 100 W3        30.09S
$$

IAZ004>006-015-016-023>025-035-036-311100-
   NORTH CENTRAL IOWA

CITY           SKY/WX    TMP DP  RH WIND       PRES   REMARKS
ALGONA *       MOCLDY    61  55  82 W5        30.09S
CLARION *      CLEAR     54  54 100 CALM      30.08S
ESTHERVILLE    MOCLDY    57  55  93 W6        30.08S
FORT DODGE *   CLEAR     54  54 100 CALM      30.09R
MASON CITY     CLEAR     54  53  97 CALM      30.09S
FOREST CITY *  FOG       52  52 100 CALM      30.08S VSB 1/2
IOWA FALLS *     N/A     57  54  88 CALM      30.09S
$$

IAZ007>011-017>019-026>030-037>042-050>054-066-311100-
   NORTHEAST IOWA

CITY           SKY/WX    TMP DP  RH WIND       PRES   REMARKS
CEDAR RAPIDS   CLEAR     58  57  97 W3        30.06S
CHARLES CITY * CLEAR     55  55 100 W5        30.07S
CLINTON *      CLEAR     55  54  94 W6        30.07F
DECORAH *      CLEAR     59  57  94 CALM      30.04S
DUBUQUE        CLEAR     57  56  96 SW3       30.05S
MONTICELLO *   CLEAR     57  57 100 CALM      30.05S
OELWEIN *      CLEAR     57  55  94 W5        30.07S
WATERLOO       CLEAR     57  56  96 CALM      30.06S
$$

IAZ064-065-067-068-078-311100-
   EAST CENTRAL IOWA

CITY           SKY/WX    TMP DP  RH WIND       PRES   REMARKS
DAVENPORT      CLEAR     55  54  96 CALM      30.06S
IOWA CITY      CLEAR     60  58  92 W3        30.07S
MT. PLEASANT * CLEAR     57  57 100 W3        30.08R
MUSCATINE *    CLEAR     59  57  94 CALM      30.06S
QUAD CITIES    CLEAR     60  57  89 CALM      30.05S
$$

IAZ062-063-075>077-085>089-095>099-311100-
   SOUTHEAST IOWA

CITY           SKY/WX    TMP DP  RH WIND       PRES   REMARKS
BURLINGTON     CLEAR     57  56  96 CALM      30.07R
FAIRFIELD *    CLEAR     57  55  94 W3        30.08S
KEOKUK *       CLEAR     59  57  94 CALM      30.07S
OSKALOOSA *      N/A     59  57  94 W3        30.09R
CENTERVILLE *  CLEAR     54  54 100 NW3       30.11S
OTTUMWA        CLEAR     58  56  93 W5        30.08S
WASHINGTON *   CLEAR     59  57  94 W3        30.07S
$$

ABBREVIATIONS USED IN REMARKS
   TC - TEMPERATURES IN CELSIUS
  WCI - WIND CHILL INDEX
   HX - HEAT INDEX
  VSB - VISIBILITY
$$




USA.gov is the U.S. government's official web portal to all federal, state and local government web resources and services.